Year,Month,Day,Hour,Minute,Value (Times are PST for windspeed in km/hr)
2016,08,27,00,00,1.40
2016,08,27,00,01,3.00
2016,08,27,00,02,2.90
2016,08,27,00,03,2.40
2016,08,27,00,04,0.80
2016,08,27,00,05,0.00
2016,08,27,00,06,0.00
2016,08,27,00,07,0.00
2016,08,27,00,08,0.00
2016,08,27,00,09,0.00
2016,08,27,00,10,0.00
2016,08,27,00,11,0.00
2016,08,27,00,12,0.00
2016,08,27,00,13,0.00
2016,08,27,00,14,0.00
2016,08,27,00,15,0.00
2016,08,27,00,16,0.00
2016,08,27,00,17,0.00
2016,08,27,00,18,2.00
2016,08,27,00,19,0.50
2016,08,27,00,20,0.00
2016,08,27,00,21,0.00
2016,08,27,00,22,0.00
2016,08,27,00,23,0.00
2016,08,27,00,24,0.00
2016,08,27,00,25,0.00
2016,08,27,00,26,0.00
2016,08,27,00,27,0.00
2016,08,27,00,28,0.00
2016,08,27,00,29,0.00
2016,08,27,00,30,0.00
2016,08,27,00,31,0.00
2016,08,27,00,32,0.00
2016,08,27,00,33,0.00
2016,08,27,00,34,0.00
2016,08,27,00,35,0.00
2016,08,27,00,36,0.00
2016,08,27,00,37,0.00
2016,08,27,00,38,0.00
2016,08,27,00,39,0.00
2016,08,27,00,40,0.00
2016,08,27,00,41,0.00
2016,08,27,00,42,0.00
2016,08,27,00,43,0.00
2016,08,27,00,44,0.00
2016,08,27,00,45,0.00
2016,08,27,00,46,0.00
2016,08,27,00,47,0.00
2016,08,27,00,48,0.00
2016,08,27,00,49,0.00
2016,08,27,00,50,0.00
2016,08,27,00,51,0.00
2016,08,27,00,52,0.00
2016,08,27,00,53,0.00
2016,08,27,00,54,0.00
2016,08,27,00,55,0.00
2016,08,27,00,56,1.50
2016,08,27,00,57,0.10
2016,08,27,00,58,0.00
2016,08,27,00,59,0.00
2016,08,27,01,00,0.00
2016,08,27,01,01,1.30
2016,08,27,01,02,1.50
2016,08,27,01,03,0.00
2016,08,27,01,04,0.00
2016,08,27,01,05,0.00
2016,08,27,01,06,0.00
2016,08,27,01,07,0.00
2016,08,27,01,08,0.00
2016,08,27,01,09,0.00
2016,08,27,01,10,0.00
2016,08,27,01,11,0.00
2016,08,27,01,12,0.00
2016,08,27,01,13,0.00
2016,08,27,01,14,0.00
2016,08,27,01,15,0.00
2016,08,27,01,16,0.00
2016,08,27,01,17,0.00
2016,08,27,01,18,0.00
2016,08,27,01,19,0.00
2016,08,27,01,20,0.00
2016,08,27,01,21,0.00
2016,08,27,01,22,0.00
2016,08,27,01,23,0.00
2016,08,27,01,24,0.00
2016,08,27,01,25,0.00
2016,08,27,01,26,0.00
2016,08,27,01,27,0.00
2016,08,27,01,28,0.00
2016,08,27,01,29,0.00
2016,08,27,01,30,0.00
2016,08,27,01,31,0.00
2016,08,27,01,32,0.00
2016,08,27,01,33,0.00
2016,08,27,01,34,0.00
2016,08,27,01,35,0.00
2016,08,27,01,36,0.00
2016,08,27,01,37,0.00
2016,08,27,01,38,0.00
2016,08,27,01,39,0.00
2016,08,27,01,40,0.00
2016,08,27,01,41,0.00
2016,08,27,01,42,0.00
2016,08,27,01,43,0.00
2016,08,27,01,44,0.00
2016,08,27,01,45,0.00
2016,08,27,01,46,0.00
2016,08,27,01,47,0.00
2016,08,27,01,48,0.00
2016,08,27,01,49,0.00
2016,08,27,01,50,0.00
2016,08,27,01,51,0.00
2016,08,27,01,52,0.00
2016,08,27,01,53,0.00
2016,08,27,01,54,0.00
2016,08,27,01,55,0.00
2016,08,27,01,56,0.00
2016,08,27,01,57,0.00
2016,08,27,01,58,0.00
2016,08,27,01,59,0.00
2016,08,27,02,00,0.00
2016,08,27,02,01,0.00
2016,08,27,02,02,0.00
2016,08,27,02,03,0.00
2016,08,27,02,04,0.00
2016,08,27,02,05,0.00
2016,08,27,02,06,0.00
2016,08,27,02,07,0.00
2016,08,27,02,08,0.00
2016,08,27,02,09,0.00
2016,08,27,02,10,0.00
2016,08,27,02,11,0.00
2016,08,27,02,12,0.00
2016,08,27,02,13,0.10
2016,08,27,02,14,0.00
2016,08,27,02,15,0.00
2016,08,27,02,16,0.00
2016,08,27,02,17,0.00
2016,08,27,02,18,0.00
2016,08,27,02,19,0.00
2016,08,27,02,20,0.00
2016,08,27,02,21,0.00
2016,08,27,02,22,0.00
2016,08,27,02,23,0.00
2016,08,27,02,24,0.00
2016,08,27,02,25,0.00
2016,08,27,02,26,0.00
2016,08,27,02,27,0.00
2016,08,27,02,28,0.00
2016,08,27,02,29,0.00
2016,08,27,02,30,0.00
2016,08,27,02,31,0.00
2016,08,27,02,32,0.00
2016,08,27,02,33,0.00
2016,08,27,02,34,0.00
2016,08,27,02,35,0.00
2016,08,27,02,36,0.00
2016,08,27,02,37,0.00
2016,08,27,02,38,0.00
2016,08,27,02,39,0.00
2016,08,27,02,40,0.00
2016,08,27,02,41,0.00
2016,08,27,02,42,0.00
2016,08,27,02,43,0.00
2016,08,27,02,44,0.00
2016,08,27,02,45,0.00
2016,08,27,02,46,0.00
2016,08,27,02,47,0.00
2016,08,27,02,48,0.00
2016,08,27,02,49,0.00
2016,08,27,02,50,0.00
2016,08,27,02,51,0.00
2016,08,27,02,52,2.50
2016,08,27,02,53,0.20
2016,08,27,02,54,0.00
2016,08,27,02,55,0.00
2016,08,27,02,56,0.00
2016,08,27,02,57,0.00
2016,08,27,02,58,0.00
2016,08,27,02,59,0.00
2016,08,27,03,00,0.00
2016,08,27,03,01,0.00
2016,08,27,03,02,0.00
2016,08,27,03,03,0.00
2016,08,27,03,04,0.00
2016,08,27,03,05,1.80
2016,08,27,03,06,3.20
2016,08,27,03,07,4.10
2016,08,27,03,08,0.70
2016,08,27,03,09,0.80
2016,08,27,03,10,0.00
2016,08,27,03,11,0.10
2016,08,27,03,12,1.80
2016,08,27,03,13,0.00
2016,08,27,03,14,0.00
2016,08,27,03,15,0.00
2016,08,27,03,16,0.00
2016,08,27,03,17,0.00
2016,08,27,03,18,0.00
2016,08,27,03,19,0.30
2016,08,27,03,20,0.10
2016,08,27,03,21,0.00
2016,08,27,03,22,0.00
2016,08,27,03,23,0.00
2016,08,27,03,24,0.00
2016,08,27,03,25,0.10
2016,08,27,03,26,2.00
2016,08,27,03,27,4.30
2016,08,27,03,28,0.80
2016,08,27,03,29,0.00
2016,08,27,03,30,0.00
2016,08,27,03,31,0.00
2016,08,27,03,32,0.00
2016,08,27,03,33,0.00
2016,08,27,03,34,0.60
2016,08,27,03,35,0.40
2016,08,27,03,36,0.00
2016,08,27,03,37,1.50
2016,08,27,03,38,6.90
2016,08,27,03,39,3.20
2016,08,27,03,40,0.60
2016,08,27,03,41,0.00
2016,08,27,03,42,0.00
2016,08,27,03,43,0.20
2016,08,27,03,44,0.00
2016,08,27,03,45,0.00
2016,08,27,03,46,0.50
2016,08,27,03,47,0.30
2016,08,27,03,48,0.00
2016,08,27,03,49,0.00
2016,08,27,03,50,0.00
2016,08,27,03,51,0.00
2016,08,27,03,52,0.00
2016,08,27,03,53,0.00
2016,08,27,03,54,0.00
2016,08,27,03,55,0.10
2016,08,27,03,56,0.00
2016,08,27,03,57,0.00
2016,08,27,03,58,0.00
2016,08,27,03,59,0.00
2016,08,27,04,00,0.00
2016,08,27,04,01,0.00
2016,08,27,04,02,0.40
2016,08,27,04,03,1.00
2016,08,27,04,04,3.90
2016,08,27,04,05,1.40
2016,08,27,04,06,0.30
2016,08,27,04,07,2.90
2016,08,27,04,08,0.00
2016,08,27,04,09,0.10
2016,08,27,04,10,0.00
2016,08,27,04,11,0.00
2016,08,27,04,12,0.00
2016,08,27,04,13,0.00
2016,08,27,04,14,0.00
2016,08,27,04,15,0.00
2016,08,27,04,16,0.10
2016,08,27,04,17,0.20
2016,08,27,04,18,0.00
2016,08,27,04,19,0.00
2016,08,27,04,20,0.00
2016,08,27,04,21,0.00
2016,08,27,04,22,0.00
2016,08,27,04,23,0.00
2016,08,27,04,24,0.00
2016,08,27,04,25,0.00
2016,08,27,04,26,0.00
2016,08,27,04,27,0.00
2016,08,27,04,28,0.00
2016,08,27,04,29,0.00
2016,08,27,04,30,0.00
2016,08,27,04,31,0.00
2016,08,27,04,32,0.00
2016,08,27,04,33,0.00
2016,08,27,04,34,0.00
2016,08,27,04,35,0.00
2016,08,27,04,36,0.00
2016,08,27,04,37,0.00
2016,08,27,04,38,0.00
2016,08,27,04,39,0.00
2016,08,27,04,40,0.00
2016,08,27,04,41,0.00
2016,08,27,04,42,0.00
2016,08,27,04,43,0.00
2016,08,27,04,44,0.00
2016,08,27,04,45,0.00
2016,08,27,04,46,0.00
2016,08,27,04,47,0.00
2016,08,27,04,48,0.00
2016,08,27,04,49,0.00
2016,08,27,04,50,0.00
2016,08,27,04,51,0.00
2016,08,27,04,52,0.00
2016,08,27,04,53,0.00
2016,08,27,04,54,0.30
2016,08,27,04,55,4.70
2016,08,27,04,56,3.00
2016,08,27,04,57,0.10
2016,08,27,04,58,0.00
2016,08,27,04,59,0.00
2016,08,27,05,00,0.00
2016,08,27,05,01,1.00
2016,08,27,05,02,3.40
2016,08,27,05,03,0.00
2016,08,27,05,04,0.80
2016,08,27,05,05,1.60
2016,08,27,05,06,0.00
2016,08,27,05,07,0.00
2016,08,27,05,08,1.30
2016,08,27,05,09,0.60
2016,08,27,05,10,0.00
2016,08,27,05,11,1.80
2016,08,27,05,12,2.30
2016,08,27,05,13,0.20
2016,08,27,05,14,1.40
2016,08,27,05,15,3.20
2016,08,27,05,16,0.50
2016,08,27,05,17,0.50
2016,08,27,05,18,0.00
2016,08,27,05,19,0.00
2016,08,27,05,20,0.00
2016,08,27,05,21,0.00
2016,08,27,05,22,0.40
2016,08,27,05,23,0.00
2016,08,27,05,24,0.10
2016,08,27,05,25,0.00
2016,08,27,05,26,0.00
2016,08,27,05,27,0.60
2016,08,27,05,28,0.20
2016,08,27,05,29,0.00
2016,08,27,05,30,0.00
2016,08,27,05,31,0.00
2016,08,27,05,32,0.00
2016,08,27,05,33,0.00
2016,08,27,05,34,0.00
2016,08,27,05,35,0.00
2016,08,27,05,36,0.00
2016,08,27,05,37,0.00
2016,08,27,05,38,0.00
2016,08,27,05,39,0.00
2016,08,27,05,40,0.00
2016,08,27,05,41,0.00
2016,08,27,05,42,0.00
2016,08,27,05,43,0.00
2016,08,27,05,44,0.00
2016,08,27,05,45,0.00
2016,08,27,05,46,0.00
2016,08,27,05,47,0.00
2016,08,27,05,48,0.00
2016,08,27,05,49,0.00
2016,08,27,05,50,0.00
2016,08,27,05,51,0.00
2016,08,27,05,52,0.00
2016,08,27,05,53,0.00
2016,08,27,05,54,0.00
2016,08,27,05,55,0.00
2016,08,27,05,56,0.00
2016,08,27,05,57,0.00
2016,08,27,05,58,0.00
2016,08,27,05,59,0.00
2016,08,27,06,00,0.10
2016,08,27,06,01,0.00
2016,08,27,06,02,0.00
2016,08,27,06,03,0.00
2016,08,27,06,04,0.30
2016,08,27,06,05,1.50
2016,08,27,06,06,4.20
2016,08,27,06,07,4.10
2016,08,27,06,08,0.40
2016,08,27,06,09,0.00
2016,08,27,06,10,0.30
2016,08,27,06,11,0.00
2016,08,27,06,12,1.40
2016,08,27,06,13,0.10
2016,08,27,06,14,0.00
2016,08,27,06,15,0.00
2016,08,27,06,16,0.00
2016,08,27,06,17,0.00
2016,08,27,06,18,0.00
2016,08,27,06,19,1.90
2016,08,27,06,20,2.90
2016,08,27,06,21,0.40
2016,08,27,06,22,3.60
2016,08,27,06,23,0.50
2016,08,27,06,24,1.80
2016,08,27,06,25,0.50
2016,08,27,06,26,0.00
2016,08,27,06,27,0.00
2016,08,27,06,28,0.00
2016,08,27,06,29,0.00
2016,08,27,06,30,0.00
2016,08,27,06,31,0.00
2016,08,27,06,32,0.00
2016,08,27,06,33,0.00
2016,08,27,06,34,0.00
2016,08,27,06,35,0.00
2016,08,27,06,36,0.00
2016,08,27,06,37,0.00
2016,08,27,06,38,0.00
2016,08,27,06,39,0.00
2016,08,27,06,40,0.00
2016,08,27,06,41,0.00
2016,08,27,06,42,0.00
2016,08,27,06,43,0.00
2016,08,27,06,44,0.00
2016,08,27,06,45,0.00
2016,08,27,06,46,0.00
2016,08,27,06,47,0.00
2016,08,27,06,48,0.00
2016,08,27,06,49,0.00
2016,08,27,06,50,0.00
2016,08,27,06,51,0.00
2016,08,27,06,52,0.00
2016,08,27,06,53,0.00
2016,08,27,06,54,0.00
2016,08,27,06,55,0.00
2016,08,27,06,56,0.00
2016,08,27,06,57,0.10
2016,08,27,06,58,0.00
2016,08,27,06,59,0.00
2016,08,27,07,00,0.00
2016,08,27,07,01,0.00
2016,08,27,07,02,0.00
2016,08,27,07,03,0.00
2016,08,27,07,04,0.00
2016,08,27,07,05,0.00
2016,08,27,07,06,0.00
2016,08,27,07,07,0.00
2016,08,27,07,08,0.00
2016,08,27,07,09,0.00
2016,08,27,07,10,0.00
2016,08,27,07,11,0.00
2016,08,27,07,12,0.00
2016,08,27,07,13,0.00
2016,08,27,07,14,0.00
2016,08,27,07,15,0.00
2016,08,27,07,16,0.00
2016,08,27,07,17,0.00
2016,08,27,07,18,0.00
2016,08,27,07,19,0.00
2016,08,27,07,20,0.00
2016,08,27,07,21,0.00
2016,08,27,07,22,0.00
2016,08,27,07,23,0.00
2016,08,27,07,24,0.00
2016,08,27,07,25,0.00
2016,08,27,07,26,0.00
2016,08,27,07,27,0.00
2016,08,27,07,28,0.00
2016,08,27,07,29,0.00
2016,08,27,07,30,0.00
2016,08,27,07,31,0.00
2016,08,27,07,32,0.00
2016,08,27,07,33,0.00
2016,08,27,07,34,0.70
2016,08,27,07,35,1.50
2016,08,27,07,36,0.30
2016,08,27,07,37,0.10
2016,08,27,07,38,2.00
2016,08,27,07,39,0.70
2016,08,27,07,40,0.30
2016,08,27,07,41,6.90
2016,08,27,07,42,5.80
2016,08,27,07,43,5.00
2016,08,27,07,44,4.20
2016,08,27,07,45,4.10
2016,08,27,07,46,4.20
2016,08,27,07,47,1.90
2016,08,27,07,48,0.20
2016,08,27,07,49,0.00
2016,08,27,07,50,0.00
2016,08,27,07,51,0.00
2016,08,27,07,52,0.00
2016,08,27,07,53,0.00
2016,08,27,07,54,3.90
2016,08,27,07,55,2.50
2016,08,27,07,56,5.10
2016,08,27,07,57,8.00
2016,08,27,07,58,6.30
2016,08,27,07,59,4.10
2016,08,27,08,00,6.90
2016,08,27,08,01,4.70
2016,08,27,08,02,4.00
2016,08,27,08,03,6.40
2016,08,27,08,04,5.60
2016,08,27,08,05,10.40
2016,08,27,08,06,7.70
2016,08,27,08,07,2.70
2016,08,27,08,08,5.60
2016,08,27,08,09,5.70
2016,08,27,08,10,6.40
2016,08,27,08,11,3.90
2016,08,27,08,12,6.40
2016,08,27,08,13,5.90
2016,08,27,08,14,2.40
2016,08,27,08,15,5.40
2016,08,27,08,16,6.80
2016,08,27,08,17,5.80
2016,08,27,08,18,4.60
2016,08,27,08,19,8.30
2016,08,27,08,20,8.40
2016,08,27,08,21,7.00
2016,08,27,08,22,6.70
2016,08,27,08,23,8.90
2016,08,27,08,24,8.10
2016,08,27,08,25,7.00
2016,08,27,08,26,4.10
2016,08,27,08,27,7.20
2016,08,27,08,28,6.40
2016,08,27,08,29,5.70
2016,08,27,08,30,7.20
2016,08,27,08,31,5.30
2016,08,27,08,32,7.00
2016,08,27,08,33,6.00
2016,08,27,08,34,4.90
2016,08,27,08,35,5.70
2016,08,27,08,36,4.90
2016,08,27,08,37,7.70
2016,08,27,08,38,3.10
2016,08,27,08,39,1.30
2016,08,27,08,40,5.60
2016,08,27,08,41,5.70
2016,08,27,08,42,5.20
2016,08,27,08,43,1.30
2016,08,27,08,44,2.80
2016,08,27,08,45,4.30
2016,08,27,08,46,6.60
2016,08,27,08,47,9.80
2016,08,27,08,48,9.50
2016,08,27,08,49,9.90
2016,08,27,08,50,10.60
2016,08,27,08,51,8.00
2016,08,27,08,52,7.70
2016,08,27,08,53,10.30
2016,08,27,08,54,9.70
2016,08,27,08,55,9.80
2016,08,27,08,56,9.50
2016,08,27,08,57,10.80
2016,08,27,08,58,9.70
2016,08,27,08,59,9.70
2016,08,27,09,00,9.30
2016,08,27,09,01,10.40
2016,08,27,09,02,6.00
2016,08,27,09,03,15.10
2016,08,27,09,04,11.90
2016,08,27,09,05,11.20
2016,08,27,09,06,12.50
2016,08,27,09,07,7.50
2016,08,27,09,08,11.50
2016,08,27,09,09,12.30
2016,08,27,09,10,11.60
2016,08,27,09,11,8.80
2016,08,27,09,12,10.50
2016,08,27,09,13,9.30
2016,08,27,09,14,3.50
2016,08,27,09,15,12.20
2016,08,27,09,16,10.80
2016,08,27,09,17,13.40
2016,08,27,09,18,9.10
2016,08,27,09,19,6.90
2016,08,27,09,20,6.50
2016,08,27,09,21,6.20
2016,08,27,09,22,4.10
2016,08,27,09,23,2.20
2016,08,27,09,24,9.90
2016,08,27,09,25,8.80
2016,08,27,09,26,10.90
2016,08,27,09,27,10.30
2016,08,27,09,28,13.40
2016,08,27,09,29,9.70
2016,08,27,09,30,5.90
2016,08,27,09,31,6.80
2016,08,27,09,32,17.50
2016,08,27,09,33,12.40
2016,08,27,09,34,8.10
2016,08,27,09,35,10.70
2016,08,27,09,36,13.60
2016,08,27,09,37,10.40
2016,08,27,09,38,12.60
2016,08,27,09,39,6.70
2016,08,27,09,40,7.90
2016,08,27,09,41,9.30
2016,08,27,09,42,12.70
2016,08,27,09,43,10.10
2016,08,27,09,44,10.50
2016,08,27,09,45,15.90
2016,08,27,09,46,16.00
2016,08,27,09,47,19.90
2016,08,27,09,48,22.40
2016,08,27,09,49,18.70
2016,08,27,09,50,17.90
2016,08,27,09,51,17.30
2016,08,27,09,52,14.90
2016,08,27,09,53,14.10
2016,08,27,09,54,10.40
2016,08,27,09,55,10.60
2016,08,27,09,56,10.10
2016,08,27,09,57,6.90
2016,08,27,09,58,11.70
2016,08,27,09,59,8.80
2016,08,27,10,00,8.90
2016,08,27,10,01,10.80
2016,08,27,10,02,9.70
2016,08,27,10,03,16.40
2016,08,27,10,04,15.00
2016,08,27,10,05,17.40
2016,08,27,10,06,11.00
2016,08,27,10,07,11.90
2016,08,27,10,08,14.30
2016,08,27,10,09,10.30
2016,08,27,10,10,10.80
2016,08,27,10,11,12.20
2016,08,27,10,12,14.90
2016,08,27,10,13,15.20
2016,08,27,10,14,12.20
2016,08,27,10,15,15.70
2016,08,27,10,16,14.40
2016,08,27,10,17,9.30
2016,08,27,10,18,14.10
2016,08,27,10,19,9.30
2016,08,27,10,20,13.40
2016,08,27,10,21,15.30
2016,08,27,10,22,13.60
2016,08,27,10,23,14.90
2016,08,27,10,24,14.20
2016,08,27,10,25,13.40
2016,08,27,10,26,14.20
2016,08,27,10,27,14.80
2016,08,27,10,28,14.50
2016,08,27,10,29,14.90
2016,08,27,10,30,19.10
2016,08,27,10,31,16.70
2016,08,27,10,32,14.20
2016,08,27,10,33,13.30
2016,08,27,10,34,11.00
2016,08,27,10,35,12.70
2016,08,27,10,36,16.50
2016,08,27,10,37,14.10
2016,08,27,10,38,12.90
2016,08,27,10,39,10.20
2016,08,27,10,40,6.60
2016,08,27,10,41,8.70
2016,08,27,10,42,10.70
2016,08,27,10,43,12.50
2016,08,27,10,44,12.30
2016,08,27,10,45,12.50
2016,08,27,10,46,12.40
2016,08,27,10,47,14.00
2016,08,27,10,48,14.30
2016,08,27,10,49,13.00
2016,08,27,10,50,10.80
2016,08,27,10,51,13.50
2016,08,27,10,52,15.80
2016,08,27,10,53,12.40
2016,08,27,10,54,18.50
2016,08,27,10,55,19.10
2016,08,27,10,56,16.80
2016,08,27,10,57,15.90
2016,08,27,10,58,14.20
2016,08,27,10,59,14.70
2016,08,27,11,00,16.70
2016,08,27,11,01,14.20
2016,08,27,11,02,10.20
2016,08,27,11,03,11.40
2016,08,27,11,04,9.90
2016,08,27,11,05,10.20
2016,08,27,11,06,7.10
2016,08,27,11,07,10.60
2016,08,27,11,08,9.10
2016,08,27,11,09,12.90
2016,08,27,11,10,7.50
2016,08,27,11,11,7.50
2016,08,27,11,12,14.20
2016,08,27,11,13,10.20
2016,08,27,11,14,16.90
2016,08,27,11,15,14.50
2016,08,27,11,16,14.10
2016,08,27,11,17,6.00
2016,08,27,11,18,6.80
2016,08,27,11,19,15.60
2016,08,27,11,20,18.10
2016,08,27,11,21,15.00
2016,08,27,11,22,14.70
2016,08,27,11,23,13.00
2016,08,27,11,24,16.20
2016,08,27,11,25,17.90
2016,08,27,11,26,14.70
2016,08,27,11,27,15.70
2016,08,27,11,28,10.50
2016,08,27,11,29,12.50
2016,08,27,11,30,9.30
2016,08,27,11,31,6.80
2016,08,27,11,32,10.30
2016,08,27,11,33,9.30
2016,08,27,11,34,11.30
2016,08,27,11,35,12.90
2016,08,27,11,36,18.00
2016,08,27,11,37,17.90
2016,08,27,11,38,15.10
2016,08,27,11,39,17.20
2016,08,27,11,40,13.00
2016,08,27,11,41,9.30
2016,08,27,11,42,15.70
2016,08,27,11,43,12.60
2016,08,27,11,44,9.10
2016,08,27,11,45,14.80
2016,08,27,11,46,12.60
2016,08,27,11,47,6.20
2016,08,27,11,48,13.20
2016,08,27,11,49,13.00
2016,08,27,11,50,11.40
2016,08,27,11,51,7.80
2016,08,27,11,52,14.60
2016,08,27,11,53,10.50
2016,08,27,11,54,12.30
2016,08,27,11,55,19.30
2016,08,27,11,56,21.60
2016,08,27,11,57,16.30
2016,08,27,11,58,19.10
2016,08,27,11,59,15.90
2016,08,27,12,00,14.50
2016,08,27,12,01,15.90
2016,08,27,12,02,15.40
2016,08,27,12,03,16.30
2016,08,27,12,04,16.70
2016,08,27,12,05,16.50
2016,08,27,12,06,17.90
2016,08,27,12,07,19.30
2016,08,27,12,08,15.20
2016,08,27,12,09,22.40
2016,08,27,12,10,21.50
2016,08,27,12,11,25.80
2016,08,27,12,12,21.40
2016,08,27,12,13,21.90
2016,08,27,12,14,19.00
2016,08,27,12,15,16.70
2016,08,27,12,16,23.70
2016,08,27,12,17,23.50
2016,08,27,12,18,20.70
2016,08,27,12,19,16.30
2016,08,27,12,20,8.10
2016,08,27,12,21,17.70
2016,08,27,12,22,14.70
2016,08,27,12,23,16.00
2016,08,27,12,24,15.20
2016,08,27,12,25,19.10
2016,08,27,12,26,18.80
2016,08,27,12,27,21.60
2016,08,27,12,28,15.90
2016,08,27,12,29,16.30
2016,08,27,12,30,17.30
2016,08,27,12,31,11.60
2016,08,27,12,32,13.80
2016,08,27,12,33,15.70
2016,08,27,12,34,21.50
2016,08,27,12,35,25.30
2016,08,27,12,36,21.90
2016,08,27,12,37,21.30
2016,08,27,12,38,17.10
2016,08,27,12,39,19.30
2016,08,27,12,40,16.10
2016,08,27,12,41,15.00
2016,08,27,12,42,10.20
2016,08,27,12,43,11.00
2016,08,27,12,44,20.40
2016,08,27,12,45,19.20
2016,08,27,12,46,21.80
2016,08,27,12,47,17.50
2016,08,27,12,48,18.50
2016,08,27,12,49,15.80
2016,08,27,12,50,18.40
2016,08,27,12,51,22.80
2016,08,27,12,52,19.10
2016,08,27,12,53,19.00
2016,08,27,12,54,17.60
2016,08,27,12,55,16.50
2016,08,27,12,56,16.70
2016,08,27,12,57,21.00
2016,08,27,12,58,16.90
2016,08,27,12,59,17.00
2016,08,27,13,00,17.90
2016,08,27,13,01,18.60
2016,08,27,13,02,23.50
2016,08,27,13,03,16.90
2016,08,27,13,04,16.30
2016,08,27,13,05,22.10
2016,08,27,13,06,20.20
2016,08,27,13,07,12.30
2016,08,27,13,08,14.60
2016,08,27,13,09,17.90
2016,08,27,13,10,21.80
2016,08,27,13,11,20.50
2016,08,27,13,12,22.40
2016,08,27,13,13,21.20
2016,08,27,13,14,22.10
2016,08,27,13,15,20.90
2016,08,27,13,16,23.70
2016,08,27,13,17,21.90
2016,08,27,13,18,14.30
2016,08,27,13,19,22.20
2016,08,27,13,20,24.60
2016,08,27,13,21,22.60
2016,08,27,13,22,25.70
2016,08,27,13,23,19.20
2016,08,27,13,24,24.30
2016,08,27,13,25,23.80
2016,08,27,13,26,17.40
2016,08,27,13,27,24.30
2016,08,27,13,28,12.20
2016,08,27,13,29,20.50
2016,08,27,13,30,21.60
2016,08,27,13,31,18.20
2016,08,27,13,32,20.30
2016,08,27,13,33,11.30
2016,08,27,13,34,19.80
2016,08,27,13,35,14.70
2016,08,27,13,36,16.40
2016,08,27,13,37,17.00
2016,08,27,13,38,14.90
2016,08,27,13,39,12.30
2016,08,27,13,40,21.20
2016,08,27,13,41,21.50
2016,08,27,13,42,22.90
2016,08,27,13,43,13.90
2016,08,27,13,44,27.10
2016,08,27,13,45,23.10
2016,08,27,13,46,29.70
2016,08,27,13,47,30.30
2016,08,27,13,48,29.80
2016,08,27,13,49,28.60
2016,08,27,13,50,28.50
2016,08,27,13,51,28.50
2016,08,27,13,52,20.30
2016,08,27,13,53,17.00
2016,08,27,13,54,19.70
2016,08,27,13,55,19.40
2016,08,27,13,56,17.20
2016,08,27,13,57,19.80
2016,08,27,13,58,15.00
2016,08,27,13,59,8.60
2016,08,27,14,00,17.80
2016,08,27,14,01,16.20
2016,08,27,14,02,17.40
2016,08,27,14,03,13.50
2016,08,27,14,04,18.90
2016,08,27,14,05,23.60
2016,08,27,14,06,19.50
2016,08,27,14,07,16.70
2016,08,27,14,08,15.60
2016,08,27,14,09,20.50
2016,08,27,14,10,17.60
2016,08,27,14,11,18.70
2016,08,27,14,12,21.00
2016,08,27,14,13,19.70
2016,08,27,14,14,22.70
2016,08,27,14,15,17.80
2016,08,27,14,16,18.40
2016,08,27,14,17,13.20
2016,08,27,14,18,14.20
2016,08,27,14,19,23.80
2016,08,27,14,20,22.30
2016,08,27,14,21,21.20
2016,08,27,14,22,25.50
2016,08,27,14,23,23.20
2016,08,27,14,24,36.70
2016,08,27,14,25,29.70
2016,08,27,14,26,30.60
2016,08,27,14,27,20.30
2016,08,27,14,28,22.50
2016,08,27,14,29,11.40
2016,08,27,14,30,15.80
2016,08,27,14,31,16.70
2016,08,27,14,32,27.00
2016,08,27,14,33,32.30
2016,08,27,14,34,23.40
2016,08,27,14,35,23.50
2016,08,27,14,36,19.30
2016,08,27,14,37,19.40
2016,08,27,14,38,26.40
2016,08,27,14,39,19.70
2016,08,27,14,40,22.90
2016,08,27,14,41,21.70
2016,08,27,14,42,23.00
2016,08,27,14,43,14.40
2016,08,27,14,44,15.40
2016,08,27,14,45,19.80
2016,08,27,14,46,22.20
2016,08,27,14,47,25.70
2016,08,27,14,48,16.30
2016,08,27,14,49,15.80
2016,08,27,14,50,30.20
2016,08,27,14,51,29.50
2016,08,27,14,52,31.30
2016,08,27,14,53,26.70
2016,08,27,14,54,21.90
2016,08,27,14,55,27.30
2016,08,27,14,56,28.50
2016,08,27,14,57,25.70
2016,08,27,14,58,23.90
2016,08,27,14,59,24.50
2016,08,27,15,00,19.60
2016,08,27,15,01,20.60
2016,08,27,15,02,21.50
2016,08,27,15,03,12.50
2016,08,27,15,04,25.10
2016,08,27,15,05,32.90
2016,08,27,15,06,29.90
2016,08,27,15,07,16.30
2016,08,27,15,08,16.00
2016,08,27,15,09,26.20
2016,08,27,15,10,18.40
2016,08,27,15,11,19.90
2016,08,27,15,12,25.80
2016,08,27,15,13,23.00
2016,08,27,15,14,17.90
2016,08,27,15,15,17.20
2016,08,27,15,16,21.50
2016,08,27,15,17,26.10
2016,08,27,15,18,23.80
2016,08,27,15,19,25.80
2016,08,27,15,20,24.50
2016,08,27,15,21,26.10
2016,08,27,15,22,25.60
2016,08,27,15,23,29.30
2016,08,27,15,24,26.80
2016,08,27,15,25,28.50
2016,08,27,15,26,24.40
2016,08,27,15,27,19.50
2016,08,27,15,28,31.70
2016,08,27,15,29,28.50
2016,08,27,15,30,20.20
2016,08,27,15,31,22.50
2016,08,27,15,32,29.00
2016,08,27,15,33,23.60
2016,08,27,15,34,24.00
2016,08,27,15,35,23.60
2016,08,27,15,36,22.90
2016,08,27,15,37,21.10
2016,08,27,15,38,14.60
2016,08,27,15,39,15.00
2016,08,27,15,40,16.30
2016,08,27,15,41,18.30
2016,08,27,15,42,12.60
2016,08,27,15,43,16.50
2016,08,27,15,44,8.10
2016,08,27,15,45,17.50
2016,08,27,15,46,19.70
2016,08,27,15,47,20.70
2016,08,27,15,48,22.60
2016,08,27,15,49,16.60
2016,08,27,15,50,18.30
2016,08,27,15,51,15.20
2016,08,27,15,52,24.50
2016,08,27,15,53,17.90
2016,08,27,15,54,25.80
2016,08,27,15,55,23.10
2016,08,27,15,56,18.50
2016,08,27,15,57,24.80
2016,08,27,15,58,28.50
2016,08,27,15,59,27.00
2016,08,27,16,00,24.70
2016,08,27,16,01,15.60
2016,08,27,16,02,11.90
2016,08,27,16,03,16.50
2016,08,27,16,04,18.70
2016,08,27,16,05,17.50
2016,08,27,16,06,23.30
2016,08,27,16,07,26.90
2016,08,27,16,08,18.00
2016,08,27,16,09,20.00
2016,08,27,16,10,23.50
2016,08,27,16,11,26.00
2016,08,27,16,12,24.10
2016,08,27,16,13,18.50
2016,08,27,16,14,15.10
2016,08,27,16,15,21.60
2016,08,27,16,16,22.20
2016,08,27,16,17,23.10
2016,08,27,16,18,20.20
2016,08,27,16,19,20.80
2016,08,27,16,20,24.30
2016,08,27,16,21,24.70
2016,08,27,16,22,22.00
2016,08,27,16,23,25.10
2016,08,27,16,24,24.70
2016,08,27,16,25,29.30
2016,08,27,16,26,20.40
2016,08,27,16,27,25.40
2016,08,27,16,28,23.60
2016,08,27,16,29,25.80
2016,08,27,16,30,25.90
2016,08,27,16,31,25.20
2016,08,27,16,32,17.30
2016,08,27,16,33,22.70
2016,08,27,16,34,26.80
2016,08,27,16,35,23.70
2016,08,27,16,36,30.30
2016,08,27,16,37,18.70
2016,08,27,16,38,30.60
2016,08,27,16,39,21.70
2016,08,27,16,40,31.00
2016,08,27,16,41,27.40
2016,08,27,16,42,35.90
2016,08,27,16,43,26.60
2016,08,27,16,44,28.70
2016,08,27,16,45,25.80
2016,08,27,16,46,24.10
2016,08,27,16,47,28.20
2016,08,27,16,48,22.80
2016,08,27,16,49,23.70
2016,08,27,16,50,23.00
2016,08,27,16,51,26.80
2016,08,27,16,52,25.20
2016,08,27,16,53,20.30
2016,08,27,16,54,27.00
2016,08,27,16,55,22.40
2016,08,27,16,56,21.70
2016,08,27,16,57,28.70
2016,08,27,16,58,31.90
2016,08,27,16,59,25.30
2016,08,27,17,00,19.70
2016,08,27,17,01,17.90
2016,08,27,17,02,31.40
2016,08,27,17,03,28.00
2016,08,27,17,04,19.80
2016,08,27,17,05,18.00
2016,08,27,17,06,25.60
2016,08,27,17,07,21.80
2016,08,27,17,08,21.60
2016,08,27,17,09,20.10
2016,08,27,17,10,22.40
2016,08,27,17,11,27.00
2016,08,27,17,12,27.40
2016,08,27,17,13,22.30
2016,08,27,17,14,24.00
2016,08,27,17,15,26.60
2016,08,27,17,16,24.10
2016,08,27,17,17,26.60
2016,08,27,17,18,19.60
2016,08,27,17,19,23.00
2016,08,27,17,20,26.80
2016,08,27,17,21,26.50
2016,08,27,17,22,24.40
2016,08,27,17,23,20.80
2016,08,27,17,24,24.60
2016,08,27,17,25,22.10
2016,08,27,17,26,24.10
2016,08,27,17,27,27.20
2016,08,27,17,28,24.60
2016,08,27,17,29,24.90
2016,08,27,17,30,20.50
2016,08,27,17,31,20.50
2016,08,27,17,32,17.70
2016,08,27,17,33,25.90
2016,08,27,17,34,24.40
2016,08,27,17,35,21.60
2016,08,27,17,36,18.00
2016,08,27,17,37,19.00
2016,08,27,17,38,26.00
2016,08,27,17,39,18.80
2016,08,27,17,40,17.50
2016,08,27,17,41,22.10
2016,08,27,17,42,20.80
2016,08,27,17,43,15.80
2016,08,27,17,44,20.40